QPF
0.00 0.00 0.01 0.01 0.00 0.00 0.00 0.00 0.00 0.00 0.01 0.02 0.00 0.00 0.00 0.00 0.00 0.00 0.00 0.02 0.03 0.03 0.02 0.00 0.00 0.00 0.00 0.00 0.00 0.00 0.00 0.00 0.00 0.00 0.01 0.02 0.02 0.02 0.02 0.01 0.01 0.00 0.00
0.00 0.00 0.01 0.01 0.00 0.00 0.00 0.00 0.00 0.01 0.00 0.00 0.01 0.01 0.01 0.00 0.00 0.00 0.00 0.00 0.00 0.00 0.00 0.00 0.00 0.00 0.00 0.00 0.00 0.00 0.00 0.00 0.00 0.00 0.00 0.00 0.00 0.00 0.00 0.00 0.02 0.00 0.00
0.00 0.00 0.00 0.00 0.00 0.00 0.00 0.00 0.00 0.01 0.01 0.00 0.00 0.01 0.01 0.01 0.02 0.01 0.01 0.01 0.02 0.02 0.00 0.00 0.00 0.00 0.00 0.00 0.00 0.00 0.00 0.00 0.00 0.00 0.00 0.00 0.00 0.01 0.00 0.00 0.01 0.01 0.02
0.00 0.00 0.00 0.00 0.00 0.00 0.00 0.00 0.00 0.00 0.00 0.00 0.00 0.00 0.02 0.03 0.00 0.01 0.03 0.06 0.03 0.00 0.00 0.00 0.00 0.00 0.00 0.00 0.00 0.00 0.00 0.00 0.00 0.01 0.00 0.00 0.00 0.00 0.00 0.00 0.01 0.00 0.02
0.00 0.00 0.00 0.00 0.00 0.00 0.00 0.00 0.00 0.00 0.00 0.00 0.00 0.00 0.00 0.01 0.03 0.01 0.00 0.02 0.04 0.01 0.00 0.00 0.00 0.02 0.00 0.00 0.01 0.04 0.05 0.01 0.00 0.00 0.00 0.00 0.00 0.00 0.00 0.00 0.01 0.00 0.00
0.00 0.00 0.00 0.00 0.00 0.00 0.00 0.00 0.00 0.00 0.00 0.00 0.00 0.00 0.01 0.01 0.02 0.08 0.01 0.02 0.01 0.00 0.00 0.00 0.00 0.00 0.00 0.00 0.02 0.02 0.02 0.00 0.00 0.00 0.00 0.00 0.00 0.00 0.00 0.00 0.00 0.00 0.00
0.00 0.00 0.00 0.00 0.00 0.00 0.00 0.00 0.00 0.00 0.00 0.00 0.00 0.00 0.00 0.01 0.03 0.06 0.04 0.05 0.04 0.01 0.00 0.01 0.00 0.00 0.00 0.00 0.00 0.00 0.00 0.00 0.00 0.00 0.00 0.00 0.00 0.00 0.00 0.00 0.00 0.00 0.00
0.00 0.00 0.00 0.00 0.00 0.00 0.00 0.00 0.00 0.00 0.00 0.00 0.00 0.00 0.00 0.01 0.04 0.04 0.03 0.01 0.02 0.03 0.01 0.00 0.01 0.01 0.00 0.00 0.00 0.00 0.00 0.00 0.00 0.00 0.00 0.00 0.00 0.00 0.00 0.00 0.00 0.00 0.00
0.00 0.00 0.00 0.00 0.00 0.00 0.00 0.04 0.02 0.01 0.01 0.00 0.00 0.00 0.00 0.00 0.01 0.03 0.03 0.04 0.01 0.01 0.03 0.05 0.01 0.01 0.02 0.00 0.00 0.00 0.00 0.00 0.00 0.00 0.00 0.00 0.00 0.00 0.00 0.00 0.00 0.00 0.00
0.00 0.00 0.00 0.00 0.00 0.00 0.01 0.10 0.06 0.02 0.03 0.02 0.00 0.00 0.00 0.00 0.00 0.02 0.04 0.03 0.01 0.02 0.00 0.02 0.03 0.00 0.00 0.00 0.00 0.00 0.00 0.00 0.00 0.00 0.00 0.00 0.00 0.00 0.00 0.00 0.00 0.00 0.00
0.00 0.00 0.00 0.00 0.00 0.00 0.00 0.03 0.05 0.03 0.01 0.02 0.01 0.01 0.02 0.00 0.00 0.02 0.03 0.02 0.00 0.01 0.01 0.00 0.00 0.00 0.00 0.00 0.00 0.00 0.00 0.00 0.00 0.00 0.00 0.00 0.00 0.00 0.00 0.00 0.00 0.00 0.00
0.00 0.00 0.00 0.00 0.00 0.00 0.00 0.00 0.07 0.03 0.03 0.02 0.00 0.00 0.00 0.01 0.01 0.00 0.00 0.00 0.01 0.01 0.01 0.00 0.00 0.00 0.00 0.00 0.00 0.00 0.00 0.00 0.00 0.00 0.00 0.00 0.00 0.00 0.00 0.00 0.01 0.00 0.00
0.00 0.00 0.00 0.00 0.00 0.00 0.00 0.00 0.00 0.00 0.02 0.00 0.00 0.00 0.02 0.06 0.04 0.01 0.00 0.00 0.02 0.04 0.00 0.01 0.00 0.01 0.00 0.00 0.00 0.00 0.00 0.00 0.00 0.00 0.00 0.00 0.00 0.00 0.00 0.02 0.05 0.04 0.01
0.01 0.00 0.00 0.00 0.00 0.00 0.00 0.00 0.00 0.00 0.01 0.00 0.00 0.00 0.00 0.08 0.10 0.01 0.00 0.00 0.00 0.00 0.00 0.00 0.00 0.03 0.02 0.00 0.00 0.00 0.00 0.00 0.00 0.00 0.00 0.00 0.00 0.00 0.00 0.02 0.07 0.11 0.14
0.00 0.00 0.00 0.00 0.00 0.00 0.00 0.00 0.00 0.00 0.00 0.01 0.03 0.01 0.03 0.06 0.22 0.03 0.00 0.00 0.00 0.00 0.00 0.00 0.00 0.03 0.05 0.02 0.00 0.00 0.00 0.00 0.00 0.00 0.00 0.00 0.00 0.00 0.00 0.03 0.06 0.04 0.06
0.00 0.00 0.00 0.00 0.00 0.00 0.00 0.00 0.00 0.00 0.00 0.08 0.12 0.04 0.12 0.07 0.03 0.01 0.00 0.00 0.00 0.00 0.02 0.04 0.05 0.09 0.06 0.01 0.00 0.00 0.00 0.00 0.00 0.00 0.00 0.00 0.00 0.00 0.00 0.07 0.07 0.05 0.02
0.00 0.00 0.00 0.00 0.00 0.00 0.00 0.00 0.00 0.00 0.00 0.06 0.20 0.22 0.20 0.21 0.16 0.09 0.02 0.00 0.00 0.00 0.00 0.00 0.00 0.03 0.03 0.00 0.00 0.00 0.00 0.00 0.00 0.00 0.00 0.00 0.00 0.00 0.00 0.06 0.06 0.03 0.03
0.00 0.00 0.00 0.00 0.00 0.00 0.00 0.00 0.00 0.00 0.00 0.00 0.02 0.10 0.20 0.27 0.18 0.13 0.13 0.00 0.00 0.00 0.00 0.00 0.01 0.07 0.06 0.08 0.07 0.01 0.00 0.00 0.00 0.00 0.00 0.00 0.00 0.00 0.00 0.01 0.02 0.04 0.03
0.00 0.00 0.00 0.00 0.00 0.00 0.00 0.00 0.00 0.00 0.00 0.00 0.00 0.00 0.00 0.01 0.04 0.03 0.06 0.01 0.00 0.00 0.02 0.01 0.09 0.08 0.16 0.09 0.12 0.02 0.00 0.00 0.00 0.00 0.00 0.00 0.00 0.00 0.00 0.00 0.00 0.01 0.01
0.00 0.00 0.00 0.00 0.00 0.00 0.00 0.00 0.00 0.00 0.00 0.00 0.00 0.00 0.00 0.00 0.00 0.00 0.00 0.00 0.00 0.05 0.11 0.08 0.15 0.11 0.14 0.10 0.18 0.04 0.00 0.00 0.00 0.00 0.00 0.00 0.00 0.00 0.00 0.00 0.00 0.00 0.01
0.00 0.00 0.00 0.00 0.00 0.00 0.00 0.09 0.13 0.07 0.00 0.00 0.00 0.00 0.00 0.00 0.00 0.00 0.00 0.00 0.00 0.02 0.07 0.06 0.09 0.13 0.12 0.11 0.16 0.03 0.00 0.00 0.00 0.00 0.00 0.00 0.00 0.00 0.00 0.00 0.00 0.00 0.00
0.00 0.00 0.00 0.00 0.00 0.00 0.00 0.01 0.02 0.03 0.00 0.00 0.00 0.01 0.02 0.05 0.03 0.00 0.00 0.00 0.00 0.00 0.00 0.01 0.03 0.01 0.02 0.05 0.09 0.05 0.02 0.04 0.02 0.00 0.00 0.00 0.00 0.00 0.00 0.00 0.00 0.00 0.00
0.00 0.00 0.00 0.00 0.00 0.00 0.00 0.00 0.00 0.00 0.00 0.01 0.04 0.05 0.06 0.07 0.01 0.00 0.00 0.00 0.00 0.00 0.00 0.01 0.00 0.01 0.00 0.00 0.03 0.03 0.02 0.07 0.07 0.00 0.00 0.00 0.00 0.00 0.00 0.00 0.00 0.00 0.00
0.00 0.00 0.00 0.00 0.00 0.00 0.00 0.00 0.01 0.05 0.05 0.04 0.03 0.00 0.00 0.00 0.00 0.00 0.00 0.00 0.00 0.00 0.00 0.04 0.01 0.02 0.04 0.00 0.00 0.00 0.00 0.01 0.01 0.02 0.01 0.00 0.00 0.00 0.00 0.00 0.00 0.00 0.00
0.00 0.00 0.00 0.00 0.00 0.00 0.00 0.00 0.00 0.04 0.07 0.06 0.00 0.00 0.00 0.00 0.00 0.00 0.00 0.00 0.00 0.00 0.00 0.00 0.02 0.20 0.12 0.01 0.00 0.06 0.08 0.01 0.02 0.01 0.00 0.00 0.00 0.00 0.00 0.00 0.00 0.00 0.00
0.00 0.00 0.00 0.00 0.00 0.00 0.00 0.00 0.00 0.00 0.00 0.00 0.01 0.01 0.00 0.00 0.00 0.00 0.00 0.00 0.00 0.00 0.04 0.15 0.17 0.13 0.07 0.03 0.07 0.12 0.12 0.05 0.00 0.00 0.00 0.00 0.00 0.00 0.00 0.00 0.00 0.00 0.00
MSLP
1013.94 1014.71 1015.57 1015.70 1015.83 1016.00 1016.05 1016.15 1016.29 1016.40 1016.49 1016.44 1016.58 1016.74 1016.80 1016.77 1016.78 1016.86 1016.95 1017.08 1017.05 1017.00 1017.07 1017.11 1017.18 1017.30 1017.39 1017.47 1017.56 1017.65 1017.72 1017.81 1017.91 1017.98 1018.09 1018.27 1018.44 1018.58 1018.57 1018.58 1018.34 1018.45 1019.09
1013.52 1014.72 1015.75 1015.88 1016.06 1016.28 1016.39 1016.48 1016.60 1016.74 1016.83 1016.76 1016.87 1016.96 1017.01 1017.03 1017.02 1017.03 1017.12 1017.23 1017.26 1017.29 1017.27 1017.35 1017.48 1017.62 1017.78 1017.82 1017.90 1018.00 1018.13 1018.24 1018.36 1018.46 1018.34 1018.32 1018.61 1018.80 1018.78 1018.67 1018.65 1019.09 1019.36
1013.61 1014.79 1015.63 1016.11 1016.36 1016.56 1016.71 1016.78 1016.92 1017.00 1017.04 1017.08 1017.11 1017.26 1017.28 1017.34 1017.29 1017.25 1017.27 1017.34 1017.49 1017.44 1017.54 1017.60 1017.74 1017.92 1018.04 1018.16 1018.28 1018.46 1018.53 1018.54 1018.55 1018.27 1017.92 1017.34 1018.51 1019.16 1019.26 1019.32 1019.32 1019.50 1019.64
1013.60 1014.63 1015.42 1016.41 1016.66 1016.87 1017.03 1017.10 1017.21 1017.30 1017.36 1017.41 1017.48 1017.49 1017.63 1017.61 1017.57 1017.51 1017.48 1017.64 1017.56 1017.67 1017.82 1017.94 1017.93 1018.13 1018.27 1018.41 1018.50 1018.63 1018.70 1018.79 1018.82 1018.30 1017.27 1017.42 1018.40 1019.47 1019.46 1019.54 1019.71 1019.82 1019.94
1013.81 1014.38 1015.61 1016.63 1016.88 1017.10 1017.30 1017.39 1017.44 1017.55 1017.67 1017.69 1017.76 1017.79 1017.78 1017.74 1017.81 1017.83 1017.79 1017.81 1017.99 1017.96 1018.09 1018.19 1018.24 1018.24 1018.43 1018.63 1018.80 1018.98 1019.06 1019.18 1019.09 1018.31 1017.86 1017.98 1018.18 1019.55 1019.70 1019.73 1019.90 1019.97 1019.92
1013.90 1014.24 1016.38 1016.83 1017.07 1017.30 1017.49 1017.63 1017.71 1017.79 1017.89 1017.95 1018.01 1018.00 1017.96 1017.94 1017.99 1018.12 1018.09 1018.03 1018.02 1018.14 1018.18 1018.35 1018.49 1018.58 1018.68 1018.86 1019.01 1019.14 1019.22 1019.32 1018.97 1018.17 1018.12 1018.70 1018.27 1019.77 1019.90 1019.86 1019.99 1020.30 1020.51
1014.07 1014.55 1016.13 1016.97 1017.28 1017.50 1017.63 1017.74 1017.92 1018.08 1018.10 1018.21 1018.21 1018.24 1018.23 1018.20 1018.22 1018.24 1018.24 1018.29 1018.33 1018.36 1018.33 1018.44 1018.65 1018.72 1018.97 1019.09 1019.19 1019.33 1019.41 1019.25 1018.40 1018.41 1018.26 1018.20 1018.95 1019.96 1020.03 1020.07 1020.32 1020.49 1020.58
1014.05 1014.68 1015.91 1017.12 1017.44 1017.65 1017.76 1017.87 1018.05 1018.20 1018.24 1018.28 1018.35 1018.43 1018.48 1018.43 1018.44 1018.39 1018.36 1018.41 1018.58 1018.61 1018.57 1018.61 1018.69 1018.83 1019.16 1019.32 1019.43 1019.48 1019.44 1019.32 1018.63 1018.56 1018.51 1018.33 1019.69 1020.08 1020.21 1020.30 1020.47 1020.53 1020.68
1014.27 1014.83 1015.82 1016.44 1017.25 1017.72 1017.80 1017.92 1018.07 1018.16 1018.28 1018.36 1018.42 1018.52 1018.55 1018.60 1018.59 1018.56 1018.60 1018.67 1018.64 1018.72 1018.81 1018.87 1018.97 1019.01 1019.34 1019.48 1019.53 1019.58 1019.53 1019.43 1018.64 1018.40 1018.38 1018.45 1019.81 1020.14 1020.20 1020.34 1020.51 1020.62 1020.74
1014.78 1015.29 1015.46 1016.02 1016.56 1016.85 1017.07 1017.97 1018.14 1018.17 1018.30 1018.44 1018.51 1018.55 1018.61 1018.53 1018.55 1018.65 1018.57 1018.65 1018.71 1018.76 1018.86 1019.01 1019.17 1019.28 1019.40 1019.55 1019.61 1019.67 1019.67 1019.62 1018.58 1018.66 1018.50 1018.50 1019.72 1019.99 1020.03 1020.13 1020.32 1020.54 1020.65
1015.25 1015.65 1015.40 1015.63 1016.49 1016.97 1016.89 1017.35 1018.07 1018.16 1018.26 1018.45 1018.49 1018.57 1018.50 1017.71 1017.82 1018.00 1018.52 1018.68 1018.75 1018.77 1018.82 1019.01 1019.13 1019.28 1019.33 1019.43 1019.51 1019.67 1019.68 1018.38 1017.66 1018.23 1018.16 1019.08 1019.67 1019.86 1019.90 1020.01 1020.23 1020.43 1020.57
1014.98 1015.58 1015.70 1015.54 1016.14 1016.77 1016.65 1017.18 1017.76 1017.53 1017.44 1018.37 1018.63 1018.58 1018.48 1018.15 1017.93 1017.99 1018.22 1018.59 1018.63 1018.70 1018.74 1018.86 1019.00 1019.06 1019.06 1017.83 1018.22 1019.21 1018.80 1018.03 1017.99 1017.78 1017.89 1018.87 1019.45 1019.63 1019.78 1019.86 1019.99 1020.23 1020.47
1014.66 1015.22 1015.93 1016.35 1016.53 1016.31 1016.75 1016.79 1016.79 1016.80 1017.89 1018.43 1018.60 1018.36 1018.05 1018.10 1018.03 1017.51 1017.36 1017.57 1017.98 1018.45 1017.59 1018.05 1018.14 1017.99 1017.41 1017.33 1017.36 1017.51 1017.57 1017.73 1017.68 1017.62 1017.49 1018.52 1019.14 1019.43 1019.52 1019.67 1019.89 1019.96 1020.27
1014.56 1015.10 1015.59 1016.10 1016.53 1016.68 1016.60 1016.88 1016.76 1016.95 1017.43 1017.97 1018.41 1018.36 1017.94 1017.87 1017.84 1017.57 1017.47 1017.50 1017.70 1017.30 1017.54 1017.75 1017.57 1017.88 1018.08 1017.99 1018.02 1017.78 1017.69 1017.70 1017.43 1017.17 1017.15 1018.17 1018.83 1019.13 1019.20 1019.36 1019.60 1019.77 1019.98
1014.36 1014.98 1015.40 1015.92 1016.62 1016.85 1017.22 1016.86 1016.92 1017.14 1017.05 1017.54 1018.34 1018.30 1018.21 1017.42 1018.14 1018.12 1018.01 1018.02 1017.43 1017.18 1017.24 1017.43 1017.52 1017.56 1017.88 1017.88 1017.53 1017.43 1017.67 1017.38 1017.24 1017.01 1016.79 1017.64 1018.35 1018.71 1018.93 1019.02 1019.09 1019.36 1019.52
1014.13 1014.64 1015.28 1016.06 1016.39 1016.60 1016.90 1017.15 1017.05 1016.94 1016.90 1017.76 1018.11 1018.20 1018.35 1018.41 1018.53 1018.58 1018.16 1017.80 1017.31 1017.12 1017.52 1017.72 1017.83 1018.01 1017.96 1017.28 1016.82 1016.94 1016.89 1016.99 1016.90 1017.04 1016.81 1016.83 1017.79 1018.24 1018.53 1018.69 1018.76 1018.94 1019.10
1013.90 1014.65 1015.17 1015.74 1016.01 1016.49 1016.67 1016.89 1016.75 1016.62 1016.57 1017.34 1018.08 1018.40 1018.47 1018.36 1018.24 1018.29 1018.17 1018.15 1017.69 1017.62 1018.17 1017.62 1017.35 1017.23 1017.50 1016.77 1016.78 1016.63 1016.55 1016.64 1016.45 1016.63 1016.74 1016.67 1016.50 1017.36 1017.79 1018.15 1018.28 1018.51 1018.59
1013.75 1014.70 1015.21 1015.34 1015.61 1016.04 1016.16 1016.45 1016.29 1016.17 1016.32 1016.52 1016.55 1017.24 1017.48 1017.67 1017.48 1017.70 1017.98 1018.08 1017.79 1018.20 1017.74 1017.22 1017.05 1017.28 1017.24 1016.82 1016.96 1016.01 1015.79 1015.84 1015.97 1016.20 1016.31 1016.09 1015.94 1015.87 1016.64 1017.01 1017.49 1017.77 1018.00
1014.22 1015.01 1014.86 1015.27 1015.58 1015.82 1016.16 1016.24 1016.22 1016.15 1016.20 1016.16 1016.17 1016.17 1016.44 1016.62 1016.69 1016.87 1016.99 1016.84 1017.47 1016.89 1017.78 1016.90 1016.91 1016.82 1017.24 1016.64 1016.88 1016.25 1015.60 1015.37 1015.30 1015.28 1015.54 1015.64 1015.56 1015.86 1015.56 1016.03 1016.64 1017.07 1017.27
1013.33 1014.61 1014.52 1014.84 1015.72 1015.95 1016.09 1016.19 1015.86 1015.74 1015.62 1015.63 1015.59 1015.51 1015.91 1015.77 1016.09 1016.37 1015.88 1016.36 1016.57 1016.66 1016.98 1016.51 1017.02 1016.71 1016.97 1016.43 1016.48 1015.67 1015.18 1015.04 1015.11 1015.06 1014.91 1014.81 1014.94 1015.06 1015.23 1015.24 1015.47 1015.75 1016.37
1012.89 1013.64 1014.17 1014.57 1015.05 1015.55 1015.70 1015.96 1016.24 1016.05 1015.06 1015.25 1015.21 1015.35 1015.87 1015.91 1016.10 1015.94 1015.68 1015.77 1016.10 1016.13 1016.43 1016.57 1016.47 1016.72 1016.42 1016.25 1016.26 1015.61 1014.62 1014.99 1014.85 1014.79 1014.70 1014.43 1014.27 1014.37 1014.26 1014.47 1014.86 1014.79 1014.84
1012.32 1013.06 1013.62 1014.07 1014.67 1015.12 1015.24 1015.30 1015.27 1015.33 1015.09 1014.82 1014.86 1015.22 1015.40 1015.81 1016.02 1015.59 1015.62 1015.56 1016.11 1015.70 1015.96 1016.11 1016.21 1015.89 1015.61 1015.35 1015.78 1014.90 1014.15 1013.90 1014.09 1014.13 1014.16 1014.15 1014.03 1013.78 1013.77 1014.06 1014.47 1014.47 1014.76
1011.96 1012.59 1013.32 1013.99 1014.32 1014.72 1014.92 1015.28 1015.48 1015.52 1015.53 1015.24 1015.08 1014.94 1014.77 1015.12 1015.22 1015.65 1015.54 1015.58 1015.85 1015.92 1015.57 1015.71 1015.65 1015.65 1015.15 1014.90 1015.24 1015.21 1014.20 1014.01 1014.04 1013.37 1013.80 1013.92 1013.89 1013.80 1013.54 1013.72 1013.81 1014.05 1014.30
1011.86 1012.47 1013.55 1014.23 1014.58 1014.86 1015.09 1014.97 1015.21 1014.91 1014.89 1014.18 1014.79 1014.66 1014.87 1014.86 1014.77 1014.67 1014.77 1014.99 1015.23 1015.35 1015.45 1015.27 1015.38 1015.44 1015.42 1014.74 1014.41 1014.12 1014.61 1014.66 1013.95 1013.06 1013.28 1013.13 1013.48 1013.50 1013.32 1013.21 1012.88 1013.32 1013.60
1012.24 1012.62 1013.17 1014.11 1014.62 1014.94 1015.13 1015.14 1015.23 1015.28 1015.48 1015.18 1014.60 1014.83 1014.87 1014.80 1014.64 1014.44 1014.39 1014.42 1014.67 1014.90 1014.91 1015.07 1014.96 1015.12 1015.36 1015.15 1014.38 1014.21 1014.95 1014.22 1014.68 1014.21 1013.06 1013.08 1012.68 1012.53 1012.85 1012.87 1012.60 1012.50 1012.79
1012.31 1012.73 1013.44 1014.04 1014.34 1014.80 1015.16 1015.31 1015.50 1015.35 1015.25 1015.07 1014.87 1014.78 1014.33 1013.92 1013.83 1013.68 1014.01 1014.21 1014.20 1014.28 1014.34 1014.62 1014.99 1015.05 1014.92 1014.70 1014.62 1014.98 1014.91 1014.88 1013.51 1013.27 1012.94 1012.71 1012.35 1011.91 1012.07 1012.54 1012.33 1012.23 1012.30
Thickness
5776 5771 5763 5761 5759 5756 5755 5754 5751 5748 5746 5746 5745 5744 5744 5745 5746 5745 5745 5744 5745 5746 5746 5746 5747 5747 5747 5746 5746 5746 5746 5746 5745 5745 5743 5741 5741 5740 5739 5737 5738 5736 5731
5783 5772 5764 5761 5759 5756 5755 5752 5750 5748 5746 5746 5745 5744 5745 5745 5746 5746 5746 5745 5746 5746 5746 5746 5745 5744 5743 5744 5744 5744 5743 5741 5740 5740 5742 5744 5741 5738 5738 5737 5736 5732 5730
5784 5773 5766 5761 5758 5756 5754 5751 5749 5748 5746 5746 5745 5743 5744 5744 5745 5746 5746 5747 5746 5746 5746 5745 5744 5742 5742 5742 5742 5741 5740 5740 5741 5744 5748 5751 5741 5736 5736 5734 5734 5732 5729
5786 5776 5769 5761 5758 5755 5753 5751 5749 5747 5746 5745 5744 5744 5743 5743 5744 5745 5746 5746 5746 5746 5745 5744 5744 5743 5743 5743 5742 5742 5742 5740 5740 5744 5751 5750 5742 5736 5736 5735 5732 5730 5727
5785 5779 5769 5761 5758 5754 5751 5750 5749 5747 5746 5745 5744 5742 5742 5743 5743 5743 5744 5745 5744 5744 5743 5743 5743 5744 5744 5743 5742 5740 5740 5739 5739 5744 5747 5746 5746 5737 5736 5734 5731 5729 5727
5785 5781 5765 5761 5758 5755 5752 5751 5749 5747 5746 5745 5744 5742 5743 5743 5743 5742 5743 5744 5744 5744 5743 5743 5743 5742 5742 5741 5740 5739 5739 5739 5742 5747 5747 5743 5746 5735 5733 5733 5731 5726 5723
5785 5780 5767 5761 5758 5755 5754 5753 5750 5747 5746 5744 5744 5743 5743 5743 5744 5743 5743 5743 5743 5744 5744 5743 5742 5742 5741 5739 5739 5739 5739 5741 5747 5747 5748 5748 5741 5734 5733 5732 5729 5726 5725
5786 5780 5770 5761 5758 5755 5754 5753 5751 5749 5747 5746 5745 5743 5743 5743 5743 5744 5744 5744 5742 5743 5744 5743 5742 5742 5739 5739 5738 5739 5740 5742 5746 5746 5746 5747 5738 5734 5732 5731 5729 5728 5725
5784 5780 5771 5765 5760 5755 5755 5753 5752 5751 5749 5748 5746 5744 5744 5743 5744 5744 5744 5744 5744 5743 5743 5742 5741 5741 5738 5738 5738 5738 5739 5740 5745 5748 5748 5748 5739 5734 5733 5731 5730 5728 5726
5780 5775 5774 5769 5765 5762 5761 5754 5752 5751 5749 5748 5747 5746 5746 5746 5746 5745 5746 5745 5745 5745 5744 5742 5741 5740 5740 5738 5738 5738 5738 5738 5746 5746 5747 5747 5739 5737 5736 5735 5733 5730 5729
5774 5772 5774 5772 5766 5762 5763 5760 5754 5751 5749 5748 5748 5748 5749 5754 5753 5752 5749 5748 5747 5746 5746 5744 5743 5742 5742 5742 5741 5739 5739 5748 5755 5750 5750 5745 5741 5739 5738 5737 5734 5732 5731
5771 5770 5772 5773 5769 5764 5765 5761 5756 5756 5755 5748 5747 5749 5750 5753 5754 5755 5754 5751 5750 5749 5749 5747 5747 5746 5746 5755 5752 5744 5746 5753 5754 5755 5754 5749 5745 5743 5740 5739 5737 5735 5732
5775 5774 5770 5767 5766 5768 5766 5764 5763 5761 5753 5750 5749 5750 5753 5754 5756 5760 5761 5759 5756 5753 5758 5755 5754 5756 5761 5761 5760 5758 5758 5757 5758 5759 5760 5753 5748 5744 5742 5740 5738 5737 5734
5774 5773 5773 5769 5766 5766 5767 5764 5764 5762 5757 5755 5752 5753 5756 5758 5759 5761 5761 5760 5759 5762 5760 5758 5760 5758 5757 5758 5757 5758 5759 5759 5762 5764 5764 5757 5751 5747 5746 5743 5742 5739 5737
5775 5774 5774 5770 5766 5765 5763 5765 5764 5761 5761 5758 5753 5754 5756 5762 5758 5757 5758 5758 5762 5765 5764 5762 5761 5761 5759 5759 5762 5763 5761 5764 5765 5767 5767 5762 5756 5753 5750 5748 5747 5743 5741
5780 5777 5776 5769 5767 5767 5766 5764 5764 5764 5764 5758 5756 5755 5755 5756 5756 5756 5758 5761 5765 5766 5764 5762 5761 5759 5760 5765 5769 5768 5768 5767 5768 5767 5768 5767 5761 5757 5753 5751 5749 5747 5745
5782 5778 5775 5771 5769 5768 5768 5767 5768 5768 5767 5759 5754 5752 5754 5756 5757 5757 5760 5759 5764 5765 5760 5764 5766 5767 5765 5770 5771 5771 5771 5770 5772 5771 5770 5769 5771 5765 5760 5756 5754 5751 5750
5782 5775 5774 5774 5773 5771 5773 5771 5772 5773 5771 5767 5765 5758 5757 5759 5762 5761 5761 5762 5764 5761 5762 5766 5769 5767 5768 5771 5769 5779 5780 5778 5777 5775 5774 5774 5775 5776 5770 5766 5762 5759 5756
5780 5773 5775 5774 5772 5773 5772 5773 5773 5774 5773 5774 5773 5773 5770 5768 5770 5770 5770 5770 5766 5770 5764 5768 5771 5772 5766 5772 5769 5777 5783 5784 5784 5783 5781 5779 5779 5776 5777 5774 5769 5765 5762
5789 5778 5779 5777 5771 5772 5773 5774 5777 5779 5779 5780 5782 5784 5781 5782 5779 5776 5780 5776 5774 5774 5772 5775 5770 5775 5770 5774 5772 5780 5786 5787 5785 5785 5786 5786 5784 5783 5780 5779 5776 5773 5770
5792 5785 5782 5779 5779 5776 5775 5774 5773 5772 5786 5786 5786 5785 5782 5782 5781 5782 5783 5782 5779 5781 5779 5779 5779 5775 5774 5778 5772 5778 5789 5787 5787 5787 5787 5789 5789 5788 5788 5785 5781 5781 5780
5795 5789 5785 5784 5781 5779 5780 5782 5783 5782 5785 5788 5788 5785 5784 5782 5781 5785 5785 5786 5782 5787 5785 5783 5781 5781 5783 5787 5774 5780 5776 5787 5791 5792 5792 5791 5791 5792 5791 5788 5784 5783 5781
5797 5794 5788 5785 5784 5782 5783 5781 5780 5781 5781 5781 5784 5786 5789 5786 5785 5784 5785 5786 5784 5784 5786 5785 5785 5782 5781 5787 5785 5776 5774 5768 5778 5795 5791 5791 5791 5791 5792 5790 5789 5787 5784
5799 5797 5787 5779 5779 5781 5780 5780 5777 5779 5777 5789 5786 5789 5787 5787 5788 5789 5789 5787 5786 5785 5784 5787 5787 5785 5782 5781 5788 5792 5786 5781 5774 5777 5789 5793 5792 5790 5793 5793 5795 5790 5788
5796 5795 5791 5783 5780 5779 5779 5779 5776 5772 5774 5779 5785 5783 5784 5785 5787 5789 5789 5788 5787 5786 5786 5784 5784 5783 5780 5778 5784 5784 5776 5784 5777 5772 5774 5778 5791 5796 5794 5793 5795 5795 5792
5797 5795 5789 5785 5784 5781 5778 5776 5770 5769 5770 5774 5777 5778 5785 5791 5793 5793 5790 5788 5788 5788 5787 5784 5780 5779 5779 5780 5780 5774 5769 5765 5778 5779 5778 5780 5782 5791 5795 5792 5793 5794 5793